Regional Weather Roundup
Issued by NWS Little Rock, AR

Home | Current Version | Previous Version | Text Only | Print | Product List | Glossary Off
Versions: 1 2 3 4 5 6 7 8 9 10 11 12 13 14 15 16 17 18 19 20 21 22 23 24 25 26 27 28 29 30 31 32

000
ASUS44 KLZK 211905
RWRLZK

WEATHER ROUNDUP FOR ARKANSAS
NATIONAL WEATHER SERVICE LITTLE ROCK AR
200 PM CDT WED JUN 21 2017

NOTE: "FAIR" INDICATES FEW OR NO CLOUDS BELOW 12,000 FEET WITH NO
SIGNIFICANT WEATHER AND/OR OBSTRUCTIONS TO VISIBILITY.

ARZ001-003-010-029-212000-
NORTHWEST ARKANSAS

CITY           SKY/WX    TMP DP  RH WIND       PRES   REMARKS
FAYETTEVILLE   SUNNY     87  61  41 E10       29.96F HX  87
FORT SMITH     CLOUDY    88  67  49 NE10      29.92F HX  91
HARRISON       CLOUDY    88  60  38 E9G18     30.00F HX  87
BENTONVILLE    SUNNY     88  57  35 S9        29.98F HX  86
ROGERS         CLOUDY    88  63  43 SE5       29.98F HX  89
SILOAM SPGS    SUNNY     90  59  35 S12       29.96F HX  89
HIGHFILL       SUNNY     90  58  33 E12G23    29.97F HX  89
SPRINGDALE     SUNNY     88  57  35 SE7G14    29.99F HX  86
$$

ARZ004-005-016-212000-
NORTH CENTRAL ARKANSAS

CITY           SKY/WX    TMP DP  RH WIND       PRES   REMARKS
BATESVILLE     CLOUDY    84  70  61 SE7       29.98F HX  88
FLIPPIN        CLOUDY    86  64  48 SE3       29.96F HX  87
MTN HOME       CLOUDY    84  65  52 SE7       29.98F HX  86
$$

ARZ040-041-212000-
WEST CENTRAL ARKANSAS

CITY           SKY/WX    TMP DP  RH WIND       PRES   REMARKS
MENA           CLOUDY    88  64  45 E13G20    29.96F HX  89
MOUNT IDA      MOSUNNY   86  63  45 VRB5      29.93F HX  87
$$

ARZ009-017-025-026-028-212000-
NORTHEAST ARKANSAS

CITY           SKY/WX    TMP DP  RH WIND       PRES   REMARKS
CORNING        LGT RAIN  86  68  54 S9        29.99F HX  89
JONESBORO      CLOUDY    91  66  43 E10G16    29.97F HX  93
WALNUT RIDGE   CLOUDY    88  66  48 CALM      29.98F HX  90
BLYTHEVILLE    MOSUNNY   89  66  46 SE9       29.99F HX  91
$$

ARZ022-023-033-042-044-212000-
CENTRAL ARKANSAS

CITY           SKY/WX    TMP DP  RH WIND       PRES   REMARKS
LITTLE ROCK    CLOUDY    86  70  58 E13       29.94F HX  90
N LITTLE ROCK    N/A     86  69  55 E13       29.94F HX  90
JACKSONVILLE   MOSUNNY   86  68  54 E17       29.94F HX  90
CONWAY           N/A     86  68  54 E12       29.93F HX  89
SEARCY         CLOUDY    88  69  53 E10       29.97F HX  92
HOT SPRINGS    CLOUDY    86  66  51 E13       29.94S HX  88
RUSSELLVILLE   PTSUNNY   87  68  52 E9        29.95F HX  90
CLINTON        FAIR      86  66  51 E8        29.97F HX  88
$$

ARZ036-212000-
EAST ARKANSAS

CITY           SKY/WX    TMP DP  RH WIND       PRES   REMARKS
WEST MEMPHIS   CLOUDY    86  70  58 SE9       29.95F HX  90
$$

ARZ050-053-066-070-073-212000-
SOUTHWEST ARKANSAS

CITY           SKY/WX    TMP DP  RH WIND       PRES   REMARKS
ARKADELPHIA    FAIR      85  72  65 NE10G20   29.91F HX  91
CAMDEN         CLOUDY    82  68  61 NE6       29.90S HX  85
TEXARKANA      PTSUNNY   86  69  56 E15G22    29.88F HX  90
EL DORADO      CLOUDY    80  70  71 NE15      29.90F
DE QUEEN       MOSUNNY   88  66  48 E14       29.89F HX  90
$$

ARZ056-057-069-212000-
SOUTHEAST ARKANSAS

CITY           SKY/WX    TMP DP  RH WIND       PRES   REMARKS
PINE BLUFF     CLOUDY    85  70  60 E15       29.93F HX  89
STUTTGART      CLOUDY    84  63  48 E13       29.95S HX  85
MONTICELLO     CLOUDY    82  70  66 E18       29.92S HX  86

$$






USA.gov is the U.S. government's official web portal to all federal, state and local government web resources and services.